Location: Courçay
(47.2523°N, 0.8761°E)
Time: 03:01:24
(UTC+00:00)

SL-19 R/B - Pass Details

Date: 18 November 2025
Orbit: 795 x 1008 km, 99.6° (Epoch: 04 December)

Event Time Altitude Azimuth Distance (km) Brightness Sun altitude
Rises 18:10:40 0° 157° (SSE) 3,304 7.1 -18.9°
Reaches altitude 10° 18:13:00 10° 156° (SSE) 2,368 6.4 -19.3°
Maximum altitude 18:18:10 76° 72° (ENE) 823 3.9 -20.2°
Drops below altitude 10° 18:23:25 10° 347° (NNW) 2,392 6.6 -21.1°
Sets 18:25:46 0° 346° (NNW) 3,342 7.4 -21.5°
